This is the latest recevied weather packets stored in our database for station/object DM5KA-13. If no packets are shown the sender has not sent any weather packets the latest 10 day(s).
| Time | Temp. | Humidity | Pressure | Rain* | Wind** | Luminosity | Snow |
|---|---|---|---|---|---|---|---|
| 1777526120 | 3.89° C | 54% | 1034.6 hPa | 0 mm | 0 m/s | - | - |
| 1777525819 | 3.89° C | 53% | 1034.6 hPa | 0 mm | 0 m/s | - | - |
| 1777525519 | 2.78° C | 55% | 1034.6 hPa | 0 mm | 0 m/s | - | - |
| 1777525219 | 2.22° C | 58% | 1034.5 hPa | 0 mm | 0.45 m/s, 0° | - | - |
| 1777524919 | 2.22° C | 62% | 1034.5 hPa | 0 mm | 0 m/s | - | - |
| 1777524624 | 2.22° C | 61% | 1034.4 hPa | 0 mm | 0 m/s | - | - |
| 1777524319 | 2.22° C | 62% | 1034.4 hPa | 0 mm | 0 m/s | - | - |
| 1777524019 | 1.11° C | 64% | 1034.4 hPa | 0 mm | 0 m/s | - | - |
| 1777523719 | 1.11° C | 66% | 1034.3 hPa | 0 mm | 0 m/s | - | - |
| 1777523419 | 0° C | 67% | 1034.3 hPa | 0 mm | 0 m/s | - | - |
| 1777523119 | 0° C | 68% | 1034.3 hPa | 0 mm | 0 m/s | - | - |
| 1777522819 | 0° C | 70% | 1034.3 hPa | 0 mm | 0 m/s | - | - |
| 1777522531 | 0° C | 72% | 1034.2 hPa | 0 mm | 0 m/s | - | - |
| 1777522207 | 0° C | 75% | 1034.1 hPa | 0 mm | 0 m/s | - | - |
| 1777521908 | 0° C | 75% | 1034.1 hPa | 0 mm | 0 m/s | - | - |
| 1777521608 | -1.11° C | 75% | 1034 hPa | 0 mm | 0 m/s | - | - |
| 1777521308 | -1.11° C | 77% | 1034 hPa | 0 mm | 0 m/s | - | - |
| 1777521008 | -1.11° C | 79% | 1034.1 hPa | 0 mm | 0 m/s | - | - |
| 1777520707 | -1.11° C | 78% | 1034 hPa | 0 mm | 0 m/s | - | - |
| 1777520407 | -1.11° C | 79% | 1034 hPa | 0 mm | 0 m/s | - | - |
| 1777520107 | -1.11° C | 80% | 1034 hPa | 0 mm | 0 m/s | - | - |
| 1777519507 | 0° C | 77% | 1033.9 hPa | 0 mm | 0 m/s | - | - |
| 1777519207 | 0° C | 75% | 1033.9 hPa | 0 mm | 0 m/s | - | - |
| 1777518907 | 0° C | 73% | 1034.1 hPa | 0 mm | 0 m/s | - | - |
| 1777518607 | 0° C | 73% | 1033.8 hPa | 0 mm | 0 m/s | - | - |
* Rain latest hour (hover to see other rain measurements)
** Current wind speed in m/s (hover to see current wind gust speed)